SVA185 OEJN-OBBI

Flight info

Callsign SVA185
Flight time 1h 46m
Altitude 41000
Route EGREP B417 PATOR T532 KSA N687 KFA M691 LADNA
Aircraft A333/H-SDE3GHIJ2J3J5M1RVWXY/LB2D1

Departure

Time 2026-05-08 10:30
Airport King Abdulaziz International Airport (OEJN)

Arrival

Time 2026-05-08 12:16
Airport Bahrain International Airport (OBBI)
Time Latitude Longitude Altitude Speed Heading
2026-05-08 10:11 21.67430 39.17270 36 ft 0 kts 124°
2026-05-08 10:20 21.67442 39.17251 36 ft 4 kts 125°
2026-05-08 10:21 21.67457 39.17228 35 ft 4 kts 117°
2026-05-08 10:21 21.67466 39.17192 36 ft 4 kts 77°
2026-05-08 10:21 21.67460 39.17177 36 ft 4 kts 37°
2026-05-08 10:21 21.67455 39.17173 36 ft 5 kts 27°
2026-05-08 10:25 21.67509 39.17170 35 ft 17 kts 342°
2026-05-08 10:25 21.67669 39.17120 35 ft 30 kts 339°
2026-05-08 10:26 21.67830 39.17131 34 ft 24 kts 52°
2026-05-08 10:26 21.67873 39.17293 34 ft 23 kts 115°
2026-05-08 10:26 21.67769 39.17375 35 ft 18 kts 156°
2026-05-08 10:26 21.67650 39.17415 36 ft 18 kts 161°
2026-05-08 10:27 21.67525 39.17463 36 ft 19 kts 158°
2026-05-08 10:27 21.67397 39.17518 37 ft 21 kts 158°
2026-05-08 10:27 21.67257 39.17577 37 ft 22 kts 158°
2026-05-08 10:27 21.67111 39.17631 37 ft 21 kts 160°
2026-05-08 10:28 21.66973 39.17681 38 ft 22 kts 161°
2026-05-08 10:28 21.66830 39.17739 39 ft 22 kts 159°
2026-05-08 10:28 21.66681 39.17798 39 ft 23 kts 160°
2026-05-08 10:28 21.66624 39.17918 40 ft 15 kts 86°
2026-05-08 10:29 21.66667 39.18001 40 ft 11 kts 35°
2026-05-08 10:29 21.66740 39.18010 39 ft 10 kts 345°
2026-05-08 10:29 21.66759 39.18003 40 ft 1 kts 340°
2026-05-08 10:29 21.66814 39.17982 40 ft 29 kts 340°
2026-05-08 10:30 21.67285 39.17795 37 ft 115 kts 340°
2026-05-08 10:30 21.68266 39.17406 311 ft 171 kts 338°
2026-05-08 10:30 21.69457 39.16935 1365 ft 194 kts 338°
2026-05-08 10:30 21.70803 39.16469 2408 ft 205 kts 344°
2026-05-08 10:31 21.72225 39.16188 3001 ft 214 kts 352°
2026-05-08 10:31 21.73733 39.16088 3520 ft 226 kts
2026-05-08 10:31 21.75292 39.16657 3771 ft 250 kts 30°
2026-05-08 10:31 21.76796 39.17719 4099 ft 265 kts 35°
2026-05-08 10:32 21.78315 39.18884 4616 ft 271 kts 36°
2026-05-08 10:32 21.79869 39.20075 5204 ft 275 kts 36°
2026-05-08 10:32 21.81454 39.21273 5791 ft 279 kts 36°
2026-05-08 10:32 21.83041 39.22464 6363 ft 284 kts 37°
2026-05-08 10:33 21.84668 39.23678 6985 ft 287 kts 36°
2026-05-08 10:33 21.86323 39.24904 7578 ft 290 kts 37°
2026-05-08 10:33 21.87998 39.26146 8168 ft 294 kts 37°
2026-05-08 10:33 21.89701 39.27410 8792 ft 297 kts 37°
2026-05-08 10:34 21.91408 39.28678 9360 ft 300 kts 37°
2026-05-08 10:34 21.93146 39.29962 9904 ft 305 kts 36°
2026-05-08 10:34 21.94964 39.31220 10292 ft 317 kts 33°
2026-05-08 10:34 21.96896 39.32507 10516 ft 334 kts 33°
2026-05-08 10:35 21.98896 39.33826 10738 ft 350 kts 32°
2026-05-08 10:35 22.01000 39.35214 11145 ft 358 kts 32°
2026-05-08 10:35 22.03147 39.36629 11601 ft 364 kts 32°
2026-05-08 10:35 22.05323 39.38067 12168 ft 368 kts 31°
2026-05-08 10:36 22.07520 39.39519 12702 ft 371 kts 31°
2026-05-08 10:36 22.09727 39.40981 12980 ft 373 kts 31°
2026-05-08 10:36 22.11940 39.42448 13025 ft 374 kts 31°
2026-05-08 10:36 22.14158 39.43918 13005 ft 375 kts 31°
2026-05-08 10:37 22.16380 39.45392 12898 ft 373 kts 31°
2026-05-08 10:37 22.18595 39.46861 12886 ft 373 kts 31°
2026-05-08 10:37 22.20782 39.48310 12892 ft 374 kts 31°
2026-05-08 10:37 22.22999 39.49780 12906 ft 373 kts 31°
2026-05-08 10:38 22.25216 39.51250 13180 ft 376 kts 31°
2026-05-08 10:38 22.27451 39.52736 13784 ft 378 kts 31°
2026-05-08 10:38 22.29703 39.54233 14396 ft 381 kts 31°
2026-05-08 10:38 22.31848 39.55921 14972 ft 384 kts 43°
2026-05-08 10:39 22.33516 39.58187 15523 ft 386 kts 58°
2026-05-08 10:39 22.34874 39.60711 16065 ft 390 kts 62°
2026-05-08 10:39 22.36186 39.63295 16572 ft 394 kts 62°
2026-05-08 10:39 22.37512 39.65910 17151 ft 396 kts 62°
2026-05-08 10:40 22.38847 39.68528 17634 ft 400 kts 61°
2026-05-08 10:40 22.40182 39.71137 18110 ft 404 kts 61°
2026-05-08 10:40 22.41548 39.73805 18592 ft 407 kts 61°
2026-05-08 10:40 22.42931 39.76501 19096 ft 409 kts 61°
2026-05-08 10:41 22.44318 39.79201 19553 ft 413 kts 60°
2026-05-08 10:41 22.45760 39.81905 19993 ft 416 kts 56°
2026-05-08 10:41 22.47540 39.84380 20425 ft 418 kts 46°
2026-05-08 10:41 22.49600 39.86624 20850 ft 421 kts 41°
2026-05-08 10:42 22.51776 39.88757 21280 ft 423 kts 39°
2026-05-08 10:42 22.53978 39.90811 21689 ft 425 kts 38°
2026-05-08 10:42 22.56244 39.92899 22063 ft 429 kts 38°
2026-05-08 10:42 22.58518 39.95000 22453 ft 431 kts 38°
2026-05-08 10:43 22.60799 39.97130 22825 ft 434 kts 38°
2026-05-08 10:43 22.63082 39.99285 23212 ft 437 kts 38°
2026-05-08 10:43 22.65376 40.01467 23580 ft 440 kts 38°
2026-05-08 10:43 22.67678 40.03668 23929 ft 442 kts 38°
2026-05-08 10:44 22.69992 40.05885 24255 ft 446 kts 39°
2026-05-08 10:44 22.72323 40.08119 24552 ft 450 kts 39°
2026-05-08 10:44 22.74678 40.10378 24845 ft 453 kts 39°
2026-05-08 10:44 22.77052 40.12657 25173 ft 457 kts 39°
2026-05-08 10:45 22.79444 40.14953 25470 ft 460 kts 39°
2026-05-08 10:45 22.81821 40.17233 25756 ft 464 kts 39°
2026-05-08 10:45 22.84275 40.19589 26043 ft 467 kts 39°
2026-05-08 10:45 22.86678 40.21895 26310 ft 470 kts 39°
2026-05-08 10:46 22.89137 40.24258 26585 ft 474 kts 40°
2026-05-08 10:46 22.91618 40.26644 26899 ft 476 kts 40°
2026-05-08 10:46 22.94106 40.29038 27170 ft 479 kts 40°
2026-05-08 10:46 22.96613 40.31452 27426 ft 483 kts 40°
2026-05-08 10:47 22.99137 40.33884 27720 ft 486 kts 40°
2026-05-08 10:47 23.01646 40.36302 27999 ft 489 kts 40°
2026-05-08 10:47 23.04200 40.38763 28283 ft 492 kts 40°
2026-05-08 10:47 23.06773 40.41244 28543 ft 495 kts 40°
2026-05-08 10:48 23.09353 40.43733 28773 ft 498 kts 40°
2026-05-08 10:48 23.11948 40.46241 29040 ft 501 kts 40°
2026-05-08 10:48 23.14561 40.48765 29345 ft 503 kts 40°
2026-05-08 10:48 23.17188 40.51304 29583 ft 507 kts 40°
2026-05-08 10:49 23.19831 40.53859 29830 ft 510 kts 40°
2026-05-08 10:49 23.22488 40.56429 30077 ft 513 kts 40°
2026-05-08 10:49 23.25101 40.59086 30347 ft 516 kts 47°
2026-05-08 10:49 23.27355 40.62138 30605 ft 517 kts 58°
2026-05-08 10:50 23.29077 40.65562 30847 ft 517 kts 68°
2026-05-08 10:50 23.30495 40.69118 31108 ft 519 kts 70°
2026-05-08 10:50 23.31821 40.72776 31341 ft 521 kts 72°
2026-05-08 10:50 23.33095 40.76479 31620 ft 523 kts 73°
2026-05-08 10:51 23.34353 40.80204 31863 ft 526 kts 73°
2026-05-08 10:51 23.35614 40.83946 32123 ft 529 kts 73°
2026-05-08 10:51 23.36893 40.87717 32349 ft 532 kts 73°
2026-05-08 10:51 23.38182 40.91488 32712 ft 532 kts 73°
2026-05-08 10:52 23.39483 40.95265 33103 ft 532 kts 73°
2026-05-08 10:52 23.40788 40.99040 33457 ft 532 kts 73°
2026-05-08 10:52 23.42097 41.02821 33767 ft 533 kts 74°
2026-05-08 10:52 23.43402 41.06595 34129 ft 533 kts 74°
2026-05-08 10:53 23.44707 41.10375 34459 ft 534 kts 74°
2026-05-08 10:53 23.46012 41.14160 34836 ft 533 kts 74°
2026-05-08 10:53 23.47316 41.17948 35140 ft 534 kts 74°
2026-05-08 10:53 23.48619 41.21739 35488 ft 533 kts 74°
2026-05-08 10:54 23.49918 41.25520 35844 ft 533 kts 74°
2026-05-08 10:54 23.51220 41.29310 36151 ft 533 kts 74°
2026-05-08 10:54 23.52518 41.33091 36439 ft 534 kts 74°
2026-05-08 10:54 23.53819 41.36888 36746 ft 534 kts 74°
2026-05-08 10:55 23.55099 41.40621 37084 ft 533 kts 74°
2026-05-08 10:55 23.56391 41.44394 37475 ft 530 kts 74°
2026-05-08 10:55 23.57677 41.48152 37831 ft 528 kts 75°
2026-05-08 10:55 23.58957 41.51897 38155 ft 526 kts 75°
2026-05-08 10:56 23.60232 41.55637 38436 ft 526 kts 75°
2026-05-08 10:56 23.61507 41.59382 38630 ft 527 kts 75°
2026-05-08 10:56 23.62790 41.63156 38825 ft 528 kts 75°
2026-05-08 10:56 23.64050 41.66860 39037 ft 528 kts 75°
2026-05-08 10:57 23.65329 41.70624 39245 ft 528 kts 75°
2026-05-08 10:57 23.66607 41.74386 39482 ft 528 kts 75°
2026-05-08 10:57 23.69079 41.81916 40002 ft 524 kts 76°
2026-05-08 10:58 23.70274 41.85675 40215 ft 524 kts 77°
2026-05-08 10:58 23.71460 41.89432 40439 ft 523 kts 77°
2026-05-08 10:58 23.72644 41.93188 40637 ft 523 kts 77°
2026-05-08 10:58 23.73829 41.96943 40825 ft 523 kts 77°
2026-05-08 10:59 23.75035 42.00693 40998 ft 524 kts 76°
2026-05-08 10:59 23.76278 42.04407 41057 ft 528 kts 75°
2026-05-08 10:59 23.78862 42.11925 41063 ft 529 kts 75°
2026-05-08 11:00 23.81456 42.19447 41064 ft 528 kts 75°
2026-05-08 11:00 23.84023 42.26953 41067 ft 527 kts 75°
2026-05-08 11:01 23.86581 42.34473 41076 ft 527 kts 75°
2026-05-08 11:01 23.89130 42.41988 41076 ft 527 kts 75°
2026-05-08 11:02 23.92950 42.53273 41072 ft 527 kts 75°
2026-05-08 11:03 23.95479 42.60759 41079 ft 527 kts 75°
2026-05-08 11:03 23.98019 42.68292 41071 ft 527 kts 75°
2026-05-08 11:04 24.00551 42.75813 41073 ft 526 kts 75°
2026-05-08 11:04 24.02652 42.82068 41070 ft 528 kts 75°
2026-05-08 11:05 24.05608 42.90902 41073 ft 528 kts 75°
2026-05-08 11:05 24.07687 42.97195 41069 ft 528 kts 76°
2026-05-08 11:06 24.10166 43.04742 41075 ft 528 kts 75°
2026-05-08 11:06 24.12651 43.12321 41084 ft 528 kts 75°
2026-05-08 11:07 24.15119 43.19853 41082 ft 528 kts 75°
2026-05-08 11:07 24.17597 43.27424 41081 ft 527 kts 75°
2026-05-08 11:08 24.20067 43.34986 41088 ft 527 kts 75°
2026-05-08 11:08 24.22538 43.42565 41088 ft 527 kts 75°
2026-05-08 11:09 24.24984 43.50084 41095 ft 526 kts 75°
2026-05-08 11:09 24.27438 43.57641 41096 ft 526 kts 75°
2026-05-08 11:10 24.29886 43.65196 41100 ft 525 kts 75°
2026-05-08 11:10 24.32329 43.72749 41100 ft 526 kts 75°
2026-05-08 11:11 24.34752 43.80259 41095 ft 526 kts 75°
2026-05-08 11:11 24.37191 43.87828 41101 ft 525 kts 75°
2026-05-08 11:12 24.39621 43.95382 41100 ft 525 kts 75°
2026-05-08 11:12 24.42051 44.02955 41095 ft 525 kts 75°
2026-05-08 11:13 24.44430 44.10476 41094 ft 522 kts 79°
2026-05-08 11:13 24.46035 44.18213 41103 ft 517 kts 84°
2026-05-08 11:14 24.47406 44.25946 41096 ft 516 kts 85°
2026-05-08 11:14 24.48729 44.33700 41108 ft 516 kts 85°
2026-05-08 11:15 24.50046 44.41399 41074 ft 516 kts 85°
2026-05-08 11:15 24.51378 44.49143 41073 ft 516 kts 85°
2026-05-08 11:16 24.52713 44.56900 41063 ft 516 kts 85°
2026-05-08 11:16 24.54045 44.64655 41063 ft 516 kts 85°
2026-05-08 11:17 24.55372 44.72410 41063 ft 516 kts 85°
2026-05-08 11:17 24.56684 44.80103 41054 ft 515 kts 85°
2026-05-08 11:18 24.58002 44.87854 41055 ft 515 kts 85°
2026-05-08 11:18 24.59316 44.95608 41049 ft 515 kts 85°
2026-05-08 11:19 24.60612 45.03286 41046 ft 514 kts 85°
2026-05-08 11:19 24.61909 45.11005 41048 ft 513 kts 85°
2026-05-08 11:20 24.63203 45.18725 41034 ft 513 kts 85°
2026-05-08 11:20 24.64491 45.26437 41037 ft 513 kts 85°
2026-05-08 11:21 24.65776 45.34153 41029 ft 512 kts 85°
2026-05-08 11:21 24.67056 45.41865 41021 ft 512 kts 85°
2026-05-08 11:22 24.68323 45.49523 41031 ft 511 kts 85°
2026-05-08 11:22 24.69592 45.57223 41029 ft 511 kts 85°
2026-05-08 11:23 24.70855 45.64911 41018 ft 511 kts 85°
2026-05-08 11:23 24.72638 45.72542 41018 ft 515 kts 79°
2026-05-08 11:24 24.74671 45.80115 41011 ft 516 kts 78°
2026-05-08 11:24 24.76751 45.87686 41013 ft 516 kts 78°
2026-05-08 11:25 24.78821 45.95250 41020 ft 516 kts 78°
2026-05-08 11:25 24.80877 46.02822 41018 ft 515 kts 78°
2026-05-08 11:26 24.82907 46.10326 41029 ft 514 kts 78°
2026-05-08 11:26 24.84943 46.17872 41031 ft 513 kts 78°
2026-05-08 11:27 24.86972 46.25411 41012 ft 514 kts 78°
2026-05-08 11:27 24.88999 46.32957 41017 ft 514 kts 78°
2026-05-08 11:28 24.91038 46.40571 41018 ft 521 kts 78°
2026-05-08 11:28 24.93083 46.48208 41018 ft 517 kts 78°
2026-05-08 11:29 24.95097 46.55741 41027 ft 514 kts 78°
2026-05-08 11:29 24.97108 46.63296 41025 ft 514 kts 79°
2026-05-08 11:30 24.99670 46.70697 41031 ft 518 kts 70°
2026-05-08 11:30 25.02644 46.77973 41023 ft 520 kts 69°
2026-05-08 11:31 25.05686 46.85212 41013 ft 520 kts 69°
2026-05-08 11:31 25.08729 46.92467 41013 ft 520 kts 69°
2026-05-08 11:32 25.11733 46.99675 41013 ft 520 kts 69°
2026-05-08 11:32 25.14743 47.06930 41017 ft 520 kts 69°
2026-05-08 11:33 25.17753 47.14198 41005 ft 519 kts 69°
2026-05-08 11:33 25.20740 47.21422 41009 ft 520 kts 69°
2026-05-08 11:34 25.23741 47.28691 41007 ft 520 kts 69°
2026-05-08 11:34 25.26738 47.35960 41000 ft 520 kts 69°
2026-05-08 11:35 25.29734 47.43242 41000 ft 520 kts 69°
2026-05-08 11:35 25.32708 47.50479 40999 ft 520 kts 69°
2026-05-08 11:36 25.35693 47.57756 41002 ft 520 kts 69°
2026-05-08 11:36 25.38677 47.65041 40975 ft 520 kts 69°
2026-05-08 11:37 25.41660 47.72337 40968 ft 520 kts 69°
2026-05-08 11:37 25.44636 47.79638 40962 ft 520 kts 70°
2026-05-08 11:38 25.47590 47.86898 40953 ft 520 kts 70°
2026-05-08 11:38 25.50558 47.94202 40945 ft 520 kts 70°
2026-05-08 11:39 25.53523 48.01511 40943 ft 520 kts 70°
2026-05-08 11:39 25.56488 48.08824 40934 ft 519 kts 70°
2026-05-08 11:40 25.59452 48.16118 40926 ft 519 kts 70°
2026-05-08 11:40 25.62372 48.23372 40924 ft 519 kts 70°
2026-05-08 11:41 25.65303 48.30687 40907 ft 519 kts 70°
2026-05-08 11:41 25.68304 48.37988 40903 ft 521 kts 64°
2026-05-08 11:42 25.72029 48.44901 40895 ft 523 kts 61°
2026-05-08 11:42 25.75923 48.51724 40894 ft 523 kts 60°
2026-05-08 11:43 25.79826 48.58495 40901 ft 523 kts 60°
2026-05-08 11:43 25.83743 48.65321 40891 ft 522 kts 60°
2026-05-08 11:44 25.87629 48.72127 40889 ft 522 kts 60°
2026-05-08 11:44 25.91510 48.78943 40765 ft 520 kts 60°
2026-05-08 11:44 25.93443 48.82339 40518 ft 517 kts 60°
2026-05-08 11:45 25.95344 48.85662 40276 ft 515 kts 59°
2026-05-08 11:45 25.97298 48.88997 40022 ft 515 kts 59°
2026-05-08 11:45 25.99273 48.92316 39775 ft 515 kts 59°
2026-05-08 11:45 26.01259 48.95635 39523 ft 515 kts 59°
2026-05-08 11:46 26.03247 48.98954 39265 ft 518 kts 59°
2026-05-08 11:46 26.05246 49.02299 39013 ft 520 kts 59°
2026-05-08 11:46 26.07250 49.05661 38777 ft 521 kts 59°
2026-05-08 11:46 26.09248 49.09023 38525 ft 521 kts 59°
2026-05-08 11:47 26.11239 49.12380 38220 ft 520 kts 59°
2026-05-08 11:47 26.13232 49.15745 37640 ft 521 kts 59°
2026-05-08 11:47 26.15227 49.19118 36963 ft 523 kts 58°
2026-05-08 11:47 26.17238 49.22521 36272 ft 526 kts 58°
2026-05-08 11:48 26.19248 49.25933 35539 ft 529 kts 58°
2026-05-08 11:48 26.21265 49.29367 34759 ft 532 kts 58°
2026-05-08 11:48 26.23302 49.32838 33926 ft 536 kts 58°
2026-05-08 11:48 26.25333 49.36284 33066 ft 541 kts 58°
2026-05-08 11:49 26.27412 49.39801 32155 ft 545 kts 58°
2026-05-08 11:49 26.29506 49.43342 31203 ft 549 kts 58°
2026-05-08 11:49 26.31607 49.46898 30464 ft 548 kts 58°
2026-05-08 11:49 26.33675 49.50404 30076 ft 538 kts 58°
2026-05-08 11:50 26.35723 49.53885 29477 ft 533 kts 58°
2026-05-08 11:50 26.37740 49.57320 29015 ft 525 kts 58°
2026-05-08 11:50 26.39729 49.60709 28460 ft 520 kts 58°
2026-05-08 11:50 26.41695 49.64063 27961 ft 513 kts 58°
2026-05-08 11:51 26.43637 49.67378 27398 ft 508 kts 58°
2026-05-08 11:51 26.45553 49.70653 26916 ft 501 kts 58°
2026-05-08 11:51 26.47442 49.73891 26415 ft 494 kts 59°
2026-05-08 11:51 26.48531 49.76103 26018 ft 488 kts 70°
2026-05-08 11:52 26.49414 49.79703 25517 ft 475 kts 86°
2026-05-08 11:52 26.49505 49.83306 24969 ft 465 kts 95°
2026-05-08 11:52 26.49328 49.86883 24435 ft 458 kts 97°
2026-05-08 11:52 26.49112 49.90427 23867 ft 453 kts 96°
2026-05-08 11:53 26.48902 49.93907 23360 ft 447 kts 96°
2026-05-08 11:53 26.48701 49.97335 22725 ft 443 kts 96°
2026-05-08 11:53 26.48503 50.00753 22148 ft 439 kts 96°
2026-05-08 11:53 26.48310 50.04147 21550 ft 435 kts 96°
2026-05-08 11:54 26.48118 50.07498 20976 ft 430 kts 96°
2026-05-08 11:54 26.47932 50.10773 20417 ft 425 kts 96°
2026-05-08 11:54 26.47746 50.14049 19814 ft 421 kts 96°
2026-05-08 11:54 26.47561 50.17293 19253 ft 416 kts 96°
2026-05-08 11:55 26.47377 50.20516 18615 ft 413 kts 97°
2026-05-08 11:55 26.47195 50.23697 18020 ft 408 kts 97°
2026-05-08 11:55 26.47014 50.26846 17428 ft 404 kts 96°
2026-05-08 11:55 26.46834 50.29962 16801 ft 400 kts 96°
2026-05-08 11:56 26.46654 50.33047 16143 ft 397 kts 96°
2026-05-08 11:56 26.46500 50.36109 15535 ft 394 kts 92°
2026-05-08 11:56 26.46863 50.39095 14940 ft 394 kts 75°
2026-05-08 11:56 26.47793 50.41963 14308 ft 392 kts 70°
2026-05-08 11:57 26.48834 50.44760 13706 ft 388 kts 69°
2026-05-08 11:57 26.49877 50.47532 13087 ft 384 kts 68°
2026-05-08 11:57 26.50894 50.50252 12486 ft 380 kts 68°
2026-05-08 11:57 26.51902 50.52970 11883 ft 375 kts 68°
2026-05-08 11:58 26.52829 50.55676 11238 ft 372 kts 75°
2026-05-08 11:58 26.53078 50.58523 10576 ft 368 kts 97°
2026-05-08 11:58 26.52338 50.61165 10116 ft 358 kts 118°
2026-05-08 11:59 26.49760 50.65723 9557 ft 335 kts 124°
2026-05-08 11:59 26.48503 50.67852 9383 ft 321 kts 123°
2026-05-08 11:59 26.47305 50.69898 9205 ft 309 kts 123°
2026-05-08 11:59 26.46128 50.71871 8873 ft 304 kts 127°
2026-05-08 12:00 26.44587 50.73469 8402 ft 303 kts 151°
2026-05-08 12:00 26.42586 50.74107 7984 ft 300 kts 179°
2026-05-08 12:00 26.40560 50.73634 7530 ft 298 kts 202°
2026-05-08 12:00 26.38605 50.72887 7068 ft 299 kts 188°
2026-05-08 12:01 26.36550 50.73079 6664 ft 297 kts 160°
2026-05-08 12:01 26.34860 50.74284 6270 ft 291 kts 132°
2026-05-08 12:01 26.33652 50.76063 5921 ft 287 kts 122°
2026-05-08 12:01 26.32585 50.77932 5583 ft 284 kts 121°
2026-05-08 12:02 26.31545 50.79789 5255 ft 280 kts 121°
2026-05-08 12:02 26.30510 50.81625 4921 ft 278 kts 121°
2026-05-08 12:02 26.29475 50.83436 4576 ft 276 kts 121°
2026-05-08 12:02 26.28446 50.85223 4243 ft 273 kts 121°
2026-05-08 12:03 26.27432 50.86990 3942 ft 267 kts 120°
2026-05-08 12:03 26.26461 50.88679 3729 ft 255 kts 121°
2026-05-08 12:03 26.25518 50.90298 3598 ft 242 kts 120°
2026-05-08 12:03 26.24618 50.91837 3479 ft 231 kts 121°
2026-05-08 12:04 26.23763 50.93297 3387 ft 219 kts 120°
2026-05-08 12:04 26.22949 50.94684 3260 ft 209 kts 120°
2026-05-08 12:04 26.22171 50.96009 3137 ft 199 kts 120°
2026-05-08 12:04 26.21427 50.97274 3002 ft 191 kts 120°
2026-05-08 12:05 26.20712 50.98489 2871 ft 184 kts 120°
2026-05-08 12:05 26.20020 50.99670 2751 ft 182 kts 120°
2026-05-08 12:05 26.19329 51.00847 2626 ft 180 kts 121°
2026-05-08 12:05 26.18648 51.02011 2497 ft 179 kts 121°
2026-05-08 12:06 26.17968 51.03160 2381 ft 176 kts 125°
2026-05-08 12:06 26.17030 51.03885 2223 ft 163 kts 168°
2026-05-08 12:06 26.15960 51.03761 1990 ft 149 kts 211°
2026-05-08 12:06 26.15358 51.02943 1786 ft 136 kts 261°
2026-05-08 12:07 26.15488 51.01953 1706 ft 129 kts 295°
2026-05-08 12:07 26.15897 51.01062 1622 ft 130 kts 294°
2026-05-08 12:07 26.16132 51.00097 1517 ft 129 kts 281°
2026-05-08 12:07 26.16262 50.99112 1503 ft 128 kts 280°
2026-05-08 12:08 26.16381 50.98129 1498 ft 129 kts 279°
2026-05-08 12:08 26.16497 50.97115 1501 ft 133 kts 278°
2026-05-08 12:08 26.16612 50.96102 1496 ft 131 kts 279°
2026-05-08 12:08 26.16726 50.95088 1503 ft 132 kts 278°
2026-05-08 12:09 26.16834 50.94094 1498 ft 130 kts 279°
2026-05-08 12:09 26.16947 50.93081 1491 ft 131 kts 279°
2026-05-08 12:09 26.17055 50.92081 1499 ft 131 kts 278°
2026-05-08 12:09 26.17165 50.91058 1501 ft 134 kts 279°
2026-05-08 12:10 26.17272 50.90045 1498 ft 130 kts 279°
2026-05-08 12:10 26.17381 50.89028 1502 ft 133 kts 279°
2026-05-08 12:10 26.17492 50.88020 1501 ft 131 kts 279°
2026-05-08 12:10 26.17603 50.86998 1498 ft 132 kts 279°
2026-05-08 12:11 26.17710 50.85998 1499 ft 130 kts 279°
2026-05-08 12:11 26.17820 50.84981 1502 ft 133 kts 279°
2026-05-08 12:11 26.17928 50.83971 1499 ft 131 kts 279°
2026-05-08 12:11 26.18037 50.82941 1500 ft 134 kts 279°
2026-05-08 12:12 26.18142 50.81943 1482 ft 129 kts 279°
2026-05-08 12:12 26.18250 50.80934 1507 ft 133 kts 279°
2026-05-08 12:12 26.18355 50.79923 1494 ft 130 kts 279°
2026-05-08 12:12 26.18480 50.78919 1498 ft 132 kts 284°
2026-05-08 12:13 26.18774 50.77958 1501 ft 132 kts 295°
2026-05-08 12:13 26.19216 50.77044 1500 ft 134 kts 302°
2026-05-08 12:13 26.19715 50.76158 1559 ft 149 kts 304°
2026-05-08 12:13 26.20320 50.75110 1653 ft 174 kts 305°
2026-05-08 12:14 26.20990 50.73943 1515 ft 180 kts 305°
2026-05-08 12:14 26.21684 50.72741 1478 ft 196 kts 304°
2026-05-08 12:14 26.22479 50.71362 1414 ft 214 kts 304°
2026-05-08 12:14 26.23255 50.70007 1157 ft 202 kts 304°
2026-05-08 12:15 26.23995 50.68719 881 ft 193 kts 303°
2026-05-08 12:15 26.24705 50.67485 632 ft 185 kts 304°
2026-05-08 12:15 26.25384 50.66308 381 ft 174 kts 303°
2026-05-08 12:15 26.26002 50.65233 159 ft 155 kts 303°
2026-05-08 12:16 26.26554 50.64275 20 ft 134 kts 303°
2026-05-08 12:16 26.26961 50.63583 16 ft 78 kts 301°
2026-05-08 12:16 26.27167 50.63224 17 ft 44 kts 303°
2026-05-08 12:16 26.27333 50.62950 18 ft 42 kts 307°
2026-05-08 12:17 26.27459 50.62677 18 ft 36 kts 273°
2026-05-08 12:17 26.27317 50.62545 18 ft 27 kts 208°
2026-05-08 12:17 26.27189 50.62451 18 ft 0 kts 212°